Voltar ao catálogo

STARLINK-11292

AtivoComunicaçõesVLEO
NORAD 61203·PAYLOAD·🇺🇸 United States

Lançado Sep 20, 2024 de Vandenberg Space Force Base

Loading…

Próximas Passagens (próximas 24 horas)

TLE

AtualizadoSource: CelesTrak SupGP

Época: Sep 14, 2026, 22:49 UTC

1 61203C 24171D   26257.95118056 -.00064685  00000+0 -53274-3 0  2575
2 61203  53.1562 323.2903 0001210  72.3629 305.9931 15.69745537    14

Acompanhe STARLINK-11292 em tempo real com AllMySat

Download on the App Store